View from above orbital plane
|
View from above satellite
|
Ground track
|
The orbit data is extracted from the following two-line orbital elements,
1 4579U 70083B 21059.79269102 .00000042 00000-0 14905-4 0 9995
2 4579 74.0034 23.7605 0009168 61.1134 299.0951 14.60509682672234
Epoch (UTC): | 28 February 2021 19:01:28 |
Eccentricity: | 0.0009168 |
inclination: | 74.0034° |
perigee height: | 685 km |
apogee height: | 698 km |
right ascension of ascending node: | 23.7605° |
argument of perigee: | 61.1134° |
revolutions per day: | 14.60509682 |
mean anomaly at epoch: | 299.0951° |
orbit number at epoch: | 67223 |
The dashed part of the orbit path shows where the satellite is in the earth's shadow,
|
|